Ludington, MI

1:55 PM EDT on April 19, 2018 (GMT -0400)
Mason County

Weather History for KLDM - June, 2013

Change the Weather History Date:

Thursday, June 13, 2013

  Actual Average Record
Temperature  
Mean Temperature 58 °F -  
Max Temperature 62 °F 76 °F 91 °F (1956)
Min Temperature 55 °F 51 °F 37 °F (1978)
Degree Days  
Heating Degree Days 6    
Growing Degree Days 8 (Base 50)    
Moisture  
Dew Point 52 °F    
Average Humidity 75    
Maximum Humidity 88    
Minimum Humidity 63    
Precipitation  
Precipitation 0.00 in - - ()
Sea Level Pressure  
Sea Level Pressure 29.90 in    
Wind  
Wind Speed 9 mph (North)    
Max Wind Speed 22 mph    
Max Gust Speed 31 mph    
Visibility 10 miles    
Events      
Averages and records for this station are not official NWS values.
T = Trace of Precipitation, MM = Missing Value Source: NWS Daily Summary

Daily Weather History Graph

Daily Weather History Graph

Search for Another Location

Airport or City:

Astronomy

Jun. 13, 2013 Rise Set
Actual Time 6:02 AM EDT 9:29 PM EDT
Civil Twilight 5:26 AM EDT 10:05 PM EDT
Nautical Twilight 4:38 AM EDT 10:53 PM EDT
Astronomical Twilight 3:38 AM EDT 11:53 PM EDT
Moon 10:46 AM EDT (6/13) No Moon Set
Length of Visible Light 16h 39m
Length of Day
15h 27m
Waxing Crescent, 21% of the Moon is Illuminated
Jun 13
Waxing Crescent
Jun 16
First Quarter
Jun 23
Full
Jun 30
Last Quarter
Jul 8
New

Hourly Weather History & Observations

Time (EDT) Temp. Dew Point Humidity Pressure Visibility Wind Dir Wind Speed Gust Speed Precip Events Conditions
12:19 AM 60.8 °F 57.2 °F 88% 29.70 in 10.0 mi NNE 3.5 mph - N/A   Overcast
12:40 AM 60.8 °F 57.2 °F 88% 29.71 in 10.0 mi Calm Calm - N/A   Overcast
12:59 AM 60.8 °F 55.4 °F 82% 29.71 in 10.0 mi North 5.8 mph - N/A   Overcast
1:18 AM 60.8 °F 55.4 °F 82% 29.72 in 10.0 mi North 5.8 mph - N/A   Overcast
1:39 AM 60.8 °F 55.4 °F 82% 29.73 in 10.0 mi North 5.8 mph - N/A   Overcast
2:00 AM 60.8 °F 55.4 °F 82% 29.74 in 10.0 mi North 6.9 mph - N/A   Overcast
2:20 AM 60.8 °F 53.6 °F 77% 29.74 in 10.0 mi North 5.8 mph - N/A   Overcast
2:41 AM 60.8 °F 53.6 °F 77% 29.74 in 10.0 mi North 4.6 mph - N/A   Scattered Clouds
3:01 AM 60.8 °F 53.6 °F 77% 29.74 in 10.0 mi North 5.8 mph - N/A   Clear
3:21 AM 60.8 °F 53.6 °F 77% 29.74 in 10.0 mi North 5.8 mph - N/A   Clear
3:41 AM 60.8 °F 53.6 °F 77% 29.74 in 10.0 mi North 4.6 mph - N/A   Clear
4:00 AM 60.8 °F 53.6 °F 77% 29.74 in 10.0 mi North 4.6 mph - N/A   Clear
4:20 AM 60.8 °F 53.6 °F 77% 29.75 in 10.0 mi North 3.5 mph - N/A   Clear
4:39 AM 59.0 °F 51.8 °F 77% 29.75 in 10.0 mi North 4.6 mph - N/A   Clear
4:59 AM 60.8 °F 51.8 °F 72% 29.77 in 10.0 mi North 3.5 mph - N/A   Scattered Clouds
5:20 AM 57.2 °F 51.8 °F 82% 29.77 in 10.0 mi Calm Calm - N/A   Clear
5:40 AM 57.2 °F 51.8 °F 82% 29.79 in 10.0 mi North 4.6 mph - N/A   Clear
6:00 AM 57.2 °F 51.8 °F 82% 29.79 in 10.0 mi North 5.8 mph - N/A   Clear
6:19 AM 57.2 °F 51.8 °F 82% 29.80 in 10.0 mi North 8.1 mph - N/A   Clear
6:39 AM 57.2 °F 50.0 °F 77% 29.81 in 10.0 mi North 4.6 mph - N/A   Clear
6:59 AM 57.2 °F 51.8 °F 82% 29.82 in 10.0 mi North 5.8 mph - N/A   Clear
7:19 AM 57.2 °F 51.8 °F 82% 29.82 in 10.0 mi North 8.1 mph - N/A   Clear
7:39 AM 57.2 °F 50.0 °F 77% 29.83 in 10.0 mi North 10.4 mph 17.3 mph N/A   Clear
7:59 AM 57.2 °F 50.0 °F 77% 29.84 in 10.0 mi North 13.8 mph 21.9 mph N/A   Clear
8:20 AM 57.2 °F 50.0 °F 77% 29.84 in 10.0 mi North 16.1 mph 20.7 mph N/A   Clear
8:41 AM 57.2 °F 50.0 °F 77% 29.85 in 10.0 mi North 13.8 mph 23.0 mph N/A   Clear
8:59 AM 59.0 °F 50.0 °F 72% 29.86 in 10.0 mi North 11.5 mph 19.6 mph N/A   Clear
9:18 AM 60.8 °F 51.8 °F 72% 29.87 in 10.0 mi North 12.7 mph 19.6 mph N/A   Clear
9:39 AM 60.8 °F 51.8 °F 72% 29.88 in 10.0 mi North 15.0 mph 19.6 mph N/A   Clear
9:59 AM 60.8 °F 51.8 °F 72% 29.88 in 10.0 mi NNW 13.8 mph 19.6 mph N/A   Clear
10:19 AM 60.8 °F 53.6 °F 77% 29.89 in 10.0 mi NNW 15.0 mph 21.9 mph N/A   Clear
10:39 AM 60.8 °F 51.8 °F 72% 29.90 in 10.0 mi NNW 16.1 mph 24.2 mph N/A   Clear
10:59 AM 60.8 °F 51.8 °F 72% 29.90 in 10.0 mi North 20.7 mph 26.5 mph N/A   Scattered Clouds
11:21 AM 60.8 °F 53.6 °F 77% 29.91 in 10.0 mi North 16.1 mph 26.5 mph N/A   Mostly Cloudy
11:40 AM 60.8 °F 51.8 °F 72% 29.91 in 10.0 mi North 17.3 mph 26.5 mph N/A   Scattered Clouds
11:58 AM 60.8 °F 51.8 °F 72% 29.92 in 10.0 mi North 18.4 mph 24.2 mph N/A   Mostly Cloudy
12:19 PM 60.8 °F 51.8 °F 72% 29.92 in 10.0 mi North 20.7 mph 29.9 mph N/A   Mostly Cloudy
12:38 PM 60.8 °F 51.8 °F 72% 29.93 in 10.0 mi North 19.6 mph 31.1 mph N/A   Mostly Cloudy
12:59 PM 60.8 °F 51.8 °F 72% 29.94 in 10.0 mi NNW 21.9 mph 27.6 mph N/A   Overcast
1:19 PM 60.8 °F 50.0 °F 68% 29.95 in 10.0 mi North 17.3 mph 29.9 mph N/A   Overcast
1:39 PM 60.8 °F 51.8 °F 72% 29.95 in 10.0 mi North 17.3 mph 27.6 mph N/A   Overcast
1:59 PM 60.8 °F 51.8 °F 72% 29.95 in 10.0 mi North 19.6 mph 26.5 mph N/A   Overcast
2:19 PM 60.8 °F 51.8 °F 72% 29.96 in 10.0 mi North 20.7 mph 31.1 mph N/A   Overcast
2:39 PM 60.8 °F 51.8 °F 72% 29.97 in 10.0 mi North 15.0 mph 23.0 mph N/A   Overcast
2:59 PM 62.6 °F 51.8 °F 68% 29.97 in 10.0 mi NNW 18.4 mph 25.3 mph N/A   Overcast
3:19 PM 60.8 °F 51.8 °F 72% 29.97 in 10.0 mi North 19.6 mph 28.8 mph N/A   Overcast
3:39 PM 60.8 °F 50.0 °F 68% 29.97 in 10.0 mi North 20.7 mph 29.9 mph N/A   Overcast
3:57 PM 60.8 °F 51.8 °F 72% 29.98 in 10.0 mi North 19.6 mph 27.6 mph N/A   Overcast
4:17 PM 60.8 °F 51.8 °F 72% 29.99 in 10.0 mi North 16.1 mph 23.0 mph N/A   Overcast
4:38 PM 60.8 °F 51.8 °F 72% 29.99 in 10.0 mi North 17.3 mph 25.3 mph N/A   Overcast
4:57 PM 60.8 °F 51.8 °F 72% 29.98 in 10.0 mi North 13.8 mph 24.2 mph N/A   Scattered Clouds
5:17 PM 60.8 °F 51.8 °F 72% 29.99 in 10.0 mi North 13.8 mph 23.0 mph N/A   Scattered Clouds
5:37 PM 60.8 °F 51.8 °F 72% 30.00 in 10.0 mi North 18.4 mph 25.3 mph N/A   Clear
5:57 PM 60.8 °F 51.8 °F 72% 30.00 in 10.0 mi North 12.7 mph 25.3 mph N/A   Clear
6:17 PM 60.8 °F 51.8 °F 72% 30.00 in 10.0 mi North 12.7 mph 26.5 mph N/A   Clear
6:37 PM 62.6 °F 51.8 °F 68% 30.00 in 10.0 mi North 17.3 mph 25.3 mph N/A   Clear
6:59 PM 62.6 °F 50.0 °F 63% 30.00 in 10.0 mi North 15.0 mph 25.3 mph N/A   Clear
7:19 PM 60.8 °F 50.0 °F 68% 30.00 in 10.0 mi North 15.0 mph 21.9 mph N/A   Clear
7:37 PM 60.8 °F 50.0 °F 68% 30.01 in 10.0 mi North 15.0 mph 23.0 mph N/A   Clear
7:57 PM 60.8 °F 50.0 °F 68% 30.01 in 10.0 mi North 10.4 mph 17.3 mph N/A   Clear
8:18 PM 60.8 °F 50.0 °F 68% 30.01 in 10.0 mi NNE 10.4 mph 17.3 mph N/A   Clear
8:37 PM 60.8 °F 50.0 °F 68% 30.02 in 10.0 mi North 11.5 mph 20.7 mph N/A   Clear
8:57 PM 57.2 °F 48.2 °F 72% 30.02 in 10.0 mi North 10.4 mph 18.4 mph N/A   Clear
9:17 PM 57.2 °F 50.0 °F 77% 30.02 in 10.0 mi NNE 9.2 mph 17.3 mph N/A   Clear
9:37 PM 57.2 °F 50.0 °F 77% 30.02 in 10.0 mi North 8.1 mph - N/A   Clear
9:57 PM 57.2 °F 50.0 °F 77% 30.02 in 10.0 mi NNE 5.8 mph - N/A   Clear
10:17 PM 57.2 °F 50.0 °F 77% 30.03 in 10.0 mi North 5.8 mph - N/A   Clear
10:37 PM 55.4 °F 48.2 °F 77% 30.04 in 10.0 mi North 5.8 mph - N/A   Clear
10:58 PM 55.4 °F 50.0 °F 82% 30.04 in 10.0 mi North 5.8 mph - N/A   Clear
11:19 PM 55.4 °F 50.0 °F 82% 30.04 in 10.0 mi North 5.8 mph - N/A   Clear
11:37 PM 55.4 °F 50.0 °F 82% 30.05 in 10.0 mi North 6.9 mph - N/A   Clear
11:58 PM 55.4 °F 50.0 °F 82% 30.05 in 10.0 mi North 5.8 mph - N/A   Clear